KI8L Weather Reports


time (UTC)temp
C
wind
direction
speed
KPH
gust
KPH
rain 1hr
cm
rain 24hr
cm
rain mn
cm
humidity
%
barometer
mb
20260504033555 7 187 3.2 3.2 0.00 0.00 0.00 79 1014.9
20260504033052 8 187 3.2 3.2 0.00 0.00 0.00 79 1014.7
20260504032549 8 193 3.2 3.2 0.00 0.00 0.00 77 1014.8
20260504032046 9 187 6.4 6.4 0.00 0.00 0.00 75 1014.9
20260504031543 9 185 3.2 3.2 0.00 0.00 0.00 77 1015.0
20260504031038 9 191 3.2 3.2 0.00 0.00 0.00 76 1014.8
20260504030536 9 191 3.2 4.8 0.00 0.00 0.00 75 1015.0
20260504030032 9 189 1.6 3.2 0.00 0.00 0.00 77 1015.0
20260504025530 9 189 3.2 4.8 0.00 0.00 0.00 74 1015.2
20260504025026 10 189 3.2 4.8 0.00 0.00 0.00 74 1015.2
20260504024523 10 189 3.2 3.2 0.00 0.00 0.00 73 1015.1
20260504024020 10 185 6.4 6.4 0.00 0.00 0.00 73 1015.3
20260504023517 10 206 4.8 4.8 0.00 0.00 0.00 72 1015.0
20260504023013 10 188 4.8 4.8 0.00 0.00 0.00 72 1015.3
20260504022508 10 169 6.4 6.4 0.00 0.00 0.00 71 1015.1
20260504022005 10 187 6.4 6.4 0.00 0.00 0.00 71 1015.2
20260504021503 10 174 4.8 4.8 0.00 0.00 0.00 73 1015.2
20260504021000 10 195 6.4 6.4 0.00 0.00 0.00 71 1015.2
20260504020456 10 179 6.4 9.7 0.00 0.00 0.00 70 1015.3
20260504015953 10 195 8.0 9.7 0.00 0.00 0.00 69 1015.3
20260504015449 10 161 11.3 16.1 0.00 0.00 0.00 69 1015.3
20260504014945 10 187 6.4 9.7 0.00 0.00 0.00 70 1015.3
20260504014441 10 186 6.4 6.4 0.00 0.00 0.00 67 1015.2
20260504013938 10 177 9.7 12.9 0.00 0.00 0.00 68 1015.4
20260504013437 10 171 11.3 14.5 0.00 0.00 0.00 66 1015.4
20260504012933 10 236 3.2 4.8 0.00 0.00 0.00 67 1015.6
20260504012431 10 244 11.3 12.9 0.00 0.00 0.00 65 1015.6
20260504011928 10 183 12.9 17.7 0.00 0.00 0.00 66 1015.5
20260504011425 10 228 6.4 9.7 0.00 0.00 0.00 66 1015.3
20260504010920 10 230 6.4 6.4 0.00 0.00 0.00 66 1015.4
20260504010417 10 227 4.8 4.8 0.00 0.00 0.00 66 1015.5
20260504005913 11 166 12.9 16.1 0.00 0.00 0.00 65 1015.3
20260504005410 11 240 6.4 9.7 0.00 0.00 0.00 64 1015.4
20260504004908 11 236 6.4 9.7 0.00 0.00 0.00 64 1015.2
20260504004405 11 246 4.8 6.4 0.00 0.00 0.00 61 1015.3
20260504003901 12 234 4.8 6.4 0.00 0.00 0.00 58 1015.0
20260504003358 11 155 16.1 24.1 0.00 0.00 0.00 52 1015.0
20260504002855 11 179 4.8 4.8 0.00 0.00 0.00 54 1014.6
20260504002351 12 194 3.2 4.8 0.00 0.00 0.00 52 1014.7
20260504001849 12 182 6.4 6.4 0.00 0.00 0.00 50 1014.7
20260504001346 12 184 9.7 11.3 0.00 0.00 0.00 51 1014.4
20260504000843 12 188 4.8 6.4 0.00 0.00 0.00 53 1014.7
20260504000340 12 177 8.0 11.3 0.00 0.00 0.00 51 1014.5
20260503235838 12 198 4.8 4.8 0.00 0.00 0.00 51 1014.7
20260503235335 13 201 6.4 6.4 0.00 0.00 0.00 50 1014.5
20260503234832 13 218 6.4 9.7 0.00 0.00 0.00 49 1014.7
20260503234330 13 181 17.7 22.5 0.00 0.00 0.00 46 1014.7
20260503233828 13 185 9.7 14.5 0.00 0.00 0.00 47 1014.8
20260503233323 13 190 9.7 12.9 0.00 0.00 0.00 48 1014.9
20260503232820 13 190 4.8 4.8 0.00 0.00 0.00 49 1014.9
20260503232318 13 216 4.8 6.4 0.00 0.00 0.00 48 1015.0
20260503231815 13 200 16.1 20.9 0.00 0.00 0.00 48 1014.9
20260503231312 13 191 14.5 16.1 0.00 0.00 0.00 47 1014.9
20260503230808 13 205 16.1 17.7 0.00 0.00 0.00 46 1015.1
20260503230305 13 202 8.0 11.3 0.00 0.00 0.00 48 1014.9
20260503225803 13 210 9.7 12.9 0.00 0.00 0.00 47 1014.9
20260503225258 13 187 6.4 9.7 0.00 0.00 0.00 47 1015.0
20260503224755 13 182 12.9 12.9 0.00 0.00 0.00 44 1015.0
20260503224252 13 223 8.0 11.3 0.00 0.00 0.00 48 1015.0
20260503223750 14 178 11.3 14.5 0.00 0.00 0.00 47 1015.2
20260503223248 14 188 12.9 14.5 0.00 0.00 0.00 43 1015.1
20260503222743 14 219 12.9 14.5 0.00 0.00 0.00 46 1015.3
20260503222241 14 238 12.9 14.5 0.00 0.00 0.00 45 1015.2
20260503221740 14 220 8.0 9.7 0.00 0.00 0.00 45 1015.4
20260503221237 14 252 4.8 9.7 0.00 0.00 0.00 45 1015.2
20260503220733 14 213 6.4 9.7 0.00 0.00 0.00 44 1015.2
20260503220231 14 243 8.0 9.7 0.00 0.00 0.00 46 1015.1
20260503215727 15 216 8.0 11.3 0.00 0.00 0.00 46 1015.1
20260503215224 14 216 6.4 9.7 0.00 0.00 0.00 46 1015.3
20260503214723 14 248 8.0 9.7 0.00 0.00 0.00 45 1015.4
20260503214219 15 160 8.0 11.3 0.00 0.00 0.00 46 1015.4
20260503213717 15 253 6.4 6.4 0.00 0.00 0.00 45 1015.4
20260503213214 15 177 17.7 22.5 0.00 0.00 0.00 44 1015.3
20260503212711 14 10 6.4 6.4 0.00 0.00 0.00 46 1015.4
20260503212208 14 198 9.7 14.5 0.00 0.00 0.00 44 1015.5
20260503211706 15 163 14.5 22.5 0.00 0.00 0.00 43 1015.4
20260503211201 15 227 9.7 12.9 0.00 0.00 0.00 45 1015.3
20260503210658 15 250 9.7 14.5 0.00 0.00 0.00 45 1015.5
20260503210155 15 259 9.7 12.9 0.00 0.00 0.00 44 1015.5
20260503205650 15 196 17.7 20.9 0.00 0.00 0.00 45 1015.5
20260503205146 15 178 8.0 11.3 0.00 0.00 0.00 45 1015.5
20260503204643 15 235 8.0 11.3 0.00 0.00 0.00 43 1015.4
20260503204141 15 249 6.4 9.7 0.00 0.00 0.00 46 1015.5
20260503203638 15 236 9.7 12.9 0.00 0.00 0.00 44 1015.6
20260503203136 15 249 9.7 12.9 0.00 0.00 0.00 41 1015.7
20260503202633 15 236 9.7 11.3 0.00 0.00 0.00 42 1015.7
20260503202131 15 229 9.7 11.3 0.00 0.00 0.00 43 1015.7
20260503201628 15 187 9.7 12.9 0.00 0.00 0.00 50 1015.8
20260503201125 16 233 11.3 14.5 0.00 0.00 0.00 43 1015.8
20260503200621 15 198 9.7 12.9 0.00 0.00 0.00 43 1015.9
20260503200118 15 221 8.0 9.7 0.00 0.00 0.00 43 1016.0
20260503195615 14 220 9.7 12.9 0.00 0.00 0.00 47 1016.0
20260503195112 14 209 17.7 22.5 0.00 0.00 0.00 43 1016.1
20260503194610 15 197 9.7 12.9 0.00 0.00 0.00 44 1016.1
20260503194109 15 231 8.0 11.3 0.00 0.00 0.00 43 1016.3
20260503193607 15 188 16.1 22.5 0.00 0.00 0.00 44 1016.2
20260503193102 15 175 16.1 20.9 0.00 0.00 0.00 43 1016.4
20260503192558 15 207 4.8 6.4 0.00 0.00 0.00 44 1016.5
20260503192054 14 168 16.1 20.9 0.00 0.00 0.00 46 1016.6
20260503191551 15 187 9.7 16.1 0.00 0.00 0.00 46 1016.6
20260503191048 16 227 9.7 12.9 0.00 0.00 0.00 41 1016.9
20260503190545 15 164 6.4 9.7 0.00 0.00 0.00 47 1016.8
20260503190042 15 229 8.0 11.3 0.00 0.00 0.00 45 1016.8
20260503185538 15 225 14.5 20.9 0.00 0.00 0.00 45 1017.0
20260503185038 14 230 11.3 12.9 0.00 0.00 0.00 47 1017.0
20260503184534 14 203 20.9 29.0 0.00 0.00 0.00 48 1017.0
20260503184031 15 172 14.5 22.5 0.00 0.00 0.00 43 1017.0
20260503183528 15 208 4.8 4.8 0.00 0.00 0.00 48 1017.0
20260503183025 15 235 6.4 6.4 0.00 0.00 0.00 45 1017.0
20260503182523 15 261 6.4 6.4 0.00 0.00 0.00 42 1017.4
20260503182021 15 243 4.8 6.4 0.00 0.00 0.00 46 1017.5
20260503181518 15 223 11.3 14.5 0.00 0.00 0.00 48 1017.6
20260503181014 15 178 16.1 20.9 0.00 0.00 0.00 45 1017.6
20260503180511 15 217 6.4 9.7 0.00 0.00 0.00 43 1017.5
20260503180009 15 226 8.0 12.9 0.00 0.00 0.00 48 1017.6
20260503175506 14 247 4.8 4.8 0.00 0.00 0.00 48 1017.7
20260503175003 14 227 8.0 11.3 0.00 0.00 0.00 46 1017.7
20260503174500 15 247 4.8 6.4 0.00 0.00 0.00 44 1017.7
20260503173956 15 186 12.9 20.9 0.00 0.00 0.00 50 1017.9
20260503173451 15 222 4.8 6.4 0.00 0.00 0.00 44 1018.0
20260503172948 14 229 8.0 9.7 0.00 0.00 0.00 44 1018.0
20260503172446 13 230 9.7 14.5 0.00 0.00 0.00 48 1017.8
20260503171942 15 189 6.4 9.7 0.00 0.00 0.00 52 1017.9
20260503171439 14 249 9.7 12.9 0.00 0.00 0.00 50 1018.1
20260503170937 15 205 9.7 12.9 0.00 0.00 0.00 47 1018.2
20260503170432 15 218 6.4 9.7 0.00 0.00 0.00 49 1018.0
20260503150825 12 234 8.0 9.7 0.00 0.00 0.00 50 1018.9
20260503150321 12 219 8.0 11.3 0.00 0.00 0.00 50 1019.0
20260503140245 10 154 4.8 12.9 0.00 0.00 0.00 56 1019.4
20260503131215 7 201 3.2 4.8 0.00 0.00 0.00 68 1019.6
20260503130712 7 190 6.4 6.4 0.00 0.00 0.00 66 1019.7
20260503130210 7 182 9.7 11.3 0.00 0.00 0.00 68 1019.8
20260503120135 0 277 1.6 1.6 0.00 0.00 0.00 99 1019.5
20260503110603 -2 288 0.0 0.0 0.00 0.00 0.00 99 1019.1
20260503090450 -1 288 0.0 0.0 0.00 0.00 0.00 99 1018.8
20260503081416 -1 288 0.0 0.0 0.00 0.00 0.00 99 1019.0
20260503080913 -1 288 0.0 0.0 0.00 0.00 0.00 99 1019.0
20260503080410 -1 288 0.0 0.0 0.00 0.00 0.00 99 1018.9
20260503072846 -1 288 0.0 0.0 0.00 0.00 0.00 99 1018.9
20260503072343 -1 288 0.0 0.0 0.00 0.00 0.00 99 1018.9
20260503071840 -1 288 0.0 0.0 0.00 0.00 0.00 99 1018.9
20260503071337 -1 288 0.0 0.0 0.00 0.00 0.00 99 1019.0
20260503070833 0 288 0.0 0.0 0.00 0.00 0.00 99 1018.8
20260503070331 0 288 0.0 0.0 0.00 0.00 0.00 99 1018.8
20260503060302 0 288 0.0 0.0 0.00 0.00 0.00 99 1018.9
20260503054749 0 288 0.0 0.0 0.00 0.00 0.00 99 1019.3
20260503054246 0 288 0.0 0.0 0.00 0.00 0.00 99 1019.2
20260503053744 0 288 0.0 0.0 0.00 0.00 0.00 99 1019.2
20260503053243 1 288 0.0 0.0 0.00 0.00 0.00 99 1019.1
20260503052738 1 288 0.0 0.0 0.00 0.00 0.00 99 1019.2
20260503052235 1 288 0.0 0.0 0.00 0.00 0.00 99 1019.0
20260503051730 1 288 0.0 0.0 0.00 0.00 0.00 99 1019.3
20260503051228 1 288 0.0 0.0 0.00 0.00 0.00 99 1019.2
20260503050724 1 288 0.0 0.0 0.00 0.00 0.00 98 1019.1
20260503050221 1 288 0.0 0.0 0.00 0.00 0.00 98 1019.1
20260503045719 2 288 0.0 0.0 0.00 0.00 0.00 98 1019.0
20260503045216 2 288 0.0 0.0 0.00 0.00 0.00 98 1019.3
20260503044712 2 288 0.0 0.0 0.00 0.00 0.00 98 1019.2
20260503044210 2 288 0.0 0.0 0.00 0.00 0.00 97 1019.2
20260503043706 3 288 0.0 0.0 0.00 0.00 0.00 97 1019.2
20260503043204 3 287 0.0 0.0 0.00 0.00 0.00 98 1019.2
20260503042659 3 287 1.6 1.6 0.00 0.00 0.00 97 1019.3
20260503042156 3 287 0.0 1.6 0.00 0.00 0.00 98 1019.2
20260503041652 3 287 1.6 1.6 0.00 0.00 0.00 98 1019.2
20260503041150 3 288 0.0 0.0 0.00 0.00 0.00 98 1019.3
20260503040648 3 287 0.0 0.0 0.00 0.00 0.00 98 1019.3
20260503040145 3 287 1.6 1.6 0.00 0.00 0.00 98 1019.3
20260503035641 3 288 0.0 0.0 0.00 0.00 0.00 98 1019.4
20260503035139 3 288 0.0 0.0 0.00 0.00 0.00 98 1019.3
20260503034636 3 287 0.0 0.0 0.00 0.00 0.00 98 1019.5
20260503034133 3 287 0.0 0.0 0.00 0.00 0.00 98 1019.2